Weather History for Jaipur, India

Change the Weather History Date:

Sunday, March 11, 2012

  Actual Average Record
Temperature  
Mean Temperature 68 °F -  
Max Temperature 83 °F - - ()
Min Temperature 54 °F - - ()
Cooling Degree Days 4    
Growing Degree Days 18 (Base 50)    
Moisture  
Dew Point 30 °F    
Average Humidity 24    
Maximum Humidity 44    
Minimum Humidity 5    
Precipitation  
Precipitation 0.00 in - - ()
Sea Level Pressure  
Sea Level Pressure 29.93 in    
Wind  
Wind Speed 7 mph ()    
Max Wind Speed 12 mph    
Max Gust Speed -    
Visibility 2.0 miles    
Events      
T = Trace of Precipitation, MM = Missing Value Source: Averaged Metar Reports

Daily Weather History Graph

Daily Weather History Graph

Search for Another Location

Airport:

Trip Planner

Search our weather history database for the weather conditions in past years. The results will help you decide how hot, cold, wet, or windy it might be!

Date:

Astronomy

Mar. 11, 2012 Rise Set
Actual Time 6:40 AM IST 6:33 PM IST
Civil Twilight 6:17 AM IST 6:56 PM IST
Nautical Twilight 5:50 AM IST 7:23 PM IST
Astronomical Twilight 5:23 AM IST 7:50 PM IST
Moon 9:56 PM IST (3/11) 8:21 AM IST (3/11)
Length of Visible Light 12h 39m
Length of Day
11h 53m
Waning Gibbous, 89% of the Moon is Illuminated
Mar 11
Waning Gibbous
Mar 15
Last Quarter
Mar 22
New
Mar 31
First Quarter
Apr 7
Full

Hourly Weather History & Observations

Time (IST) Temp. Dew Point Humidity Pressure Visibility Wind Dir Wind Speed Gust Speed Precip Events Conditions
12:00 AM 64.4 °F 30.2 °F 28% 29.95 in 1.9 mi ENE 6.9 mph - N/A   Haze
1:00 AM 64.4 °F 32.0 °F 30% 29.95 in 1.9 mi ENE 9.2 mph - N/A   Haze
2:00 AM 64.4 °F 32.0 °F 30% 29.95 in 1.9 mi ENE 9.2 mph - N/A   Haze
2:30 AM 63 °F 33 °F 21% 29.90 in 1 mi East 8.1 mph - -   Haze
2:30 AM 64.4 °F 32.0 °F 30% 29.92 in 1.9 mi East 8.1 mph - N/A   Haze
4:00 AM 55.4 °F 33.8 °F 44% 29.92 in 1.9 mi SE 3.5 mph - N/A   Haze
5:00 AM 55.4 °F 32.0 °F 41% 29.92 in 1.9 mi East 5.8 mph - N/A   Haze
5:30 AM 56 °F 34 °F 32% 29.92 in 1 mi ESE 4.6 mph - -   Haze
5:30 AM 57.2 °F 32.0 °F 38% 29.95 in 1.9 mi ESE 4.6 mph - N/A   Haze
6:00 AM 55.4 °F 32.0 °F 41% 29.95 in 1.9 mi East 5.8 mph - N/A   Haze
7:00 AM 60.8 °F 32.0 °F 34% 29.95 in 1.9 mi ENE 8.1 mph - N/A   Haze
8:00 AM 64.4 °F 33.8 °F 32% 29.98 in 1.9 mi ENE 11.5 mph - N/A   Haze
8:30 AM 66 °F 30 °F 16% 29.94 in 1 mi East 11.5 mph - -   Haze
8:30 AM 64.4 °F 33.8 °F 32% 29.98 in 1.9 mi East 11.5 mph - N/A   Haze
9:00 AM 68.0 °F 35.6 °F 30% 29.98 in 1.9 mi East 9.2 mph - N/A   Haze
10:00 AM 69.8 °F 37.4 °F 31% 30.01 in 1.9 mi SE 10.4 mph - N/A   Haze
11:00 AM 73.4 °F 35.6 °F 25% 30.01 in 1.9 mi SE 8.1 mph - N/A   Haze
11:30 AM 77 °F 36 °F 14% 29.94 in 2 mi SE 6.9 mph - -   Haze
1:00 PM 80.6 °F 24.8 °F 13% 29.98 in 2.5 mi SE 11.5 mph - N/A   Haze
2:00 PM 78.8 °F 26.6 °F 15% 29.95 in 3.1 mi SE 9.2 mph - N/A   Haze
2:30 PM 79 °F 25 °F 6% 29.86 in 2 mi SE 6.9 mph - -   Haze
3:00 PM 78.8 °F 24.8 °F 14% 29.92 in 3.1 mi SE 8.1 mph - N/A   Haze
4:00 PM 80.6 °F 23.0 °F 12% 29.89 in 3.1 mi SE 6.9 mph - N/A   Haze
5:00 PM 78.8 °F 24.8 °F 14% 29.89 in 3.1 mi SE 8.1 mph - N/A   Haze
5:30 PM 79 °F 21 °F 5% 29.81 in 2 mi SE 4.6 mph - -   Haze
6:00 PM 78.8 °F 24.8 °F 14% 29.89 in 3.1 mi SE 5.8 mph - N/A   Haze
7:00 PM 73.4 °F 24.8 °F 16% 29.89 in 2.5 mi East 4.6 mph - N/A   Haze
8:30 PM 71 °F 25 °F 9% 29.86 in 1 mi 1.2 mph - -   Haze
9:00 PM 69.8 °F 26.6 °F 20% 29.95 in 1.9 mi ENE 5.8 mph - N/A   Haze
10:00 PM 68.0 °F 26.6 °F 21% 29.95 in 1.9 mi ENE 4.6 mph - N/A   Haze
11:00 PM 68.0 °F 26.6 °F 21% 29.95 in 1.9 mi ENE 8.1 mph - N/A   Haze
11:30 PM 68.0 °F 28.4 °F 23% 29.95 in 1.9 mi ENE 8.1 mph - N/A   Haze